This demonstration page uses our WeatherBlox Daily Observations layout. Learn more.

Left ArrowRight Arrow

Hourly Observations for May 31, 2020

Temp ( °F °C ) Dew Point ( °F °C ) Humidity (%) Winds ( mph kmh ) Pressure ( in mb ) Visibility ( mi km ) Precip ( " mm )
12:53 am 00:53 Clear 58 14.4 48 8.9 70 70 N 5 7 30.19 1022 10 16.0934 N/A
1:53 am 01:53 Clear 58 14.4 48 8.9 70 70 N 5 7 30.19 1022 10 16.0934 N/A
2:53 am 02:53 Clear 52 11.1 50 10 93 93 NW 5 7 30.19 1023 10 16.0934 N/A
3:53 am 03:53 Clear 51 10.6 50 10 96 96 N N/A 30.2 1023 10 16.0934 N/A
4:53 am 04:53 Mostly Clear 50 10 46 7.8 86 86 NW 6 9 30.22 1023 10 16.0934 N/A
5:53 am 05:53 Clear 53 11.7 44 6.7 72 72 N 7 11 30.23 1024 10 16.0934 N/A
6:53 am 06:53 Sunny 53 11.7 45 7.2 74 74 N 6 9 30.27 1025 10 16.0934 N/A
7:53 am 07:53 Sunny 56 13.3 47 8.3 72 72 NNE 7 11 30.29 1026 10 16.0934 N/A
8:53 am 08:53 Sunny 59 15 48 8.9 67 67 NNE 8 13 30.31 1026 10 16.0934 N/A
9:53 am 09:53 Sunny 62 16.7 47 8.3 58 58 NE 8 13 30.32 1027 10 16.0934 N/A
10:53 am 10:53 Sunny 64 17.8 42 5.6 45 45 NNE 10 17 30.31 1027 10 16.0934 N/A
11:53 am 11:53 Sunny 66 18.9 42 5.6 42 42 NNE 9 15 30.31 1027 10 16.0934 N/A
12:53 pm 12:53 Sunny 67 19.4 41 5 39 39 ENE 6 9 30.31 1026 10 16.0934 N/A
1:53 pm 13:53 Sunny 68 20 45 7.2 44 44 NNW 9 15 30.3 1026 10 16.0934 N/A
2:53 pm 14:53 Sunny 68 20 44 6.7 42 42 NW 8 13 30.29 1026 10 16.0934 N/A
3:53 pm 15:53 Sunny 70 21.1 44 6.7 39 39 N 10 17 30.27 1025 10 16.0934 N/A
4:53 pm 16:53 Sunny 70 21.1 45 7.2 41 41 VRB 5 7 30.27 1025 10 16.0934 N/A
5:53 pm 17:53 Sunny 70 21.1 44 6.7 39 39 N 5 7 30.26 1025 10 16.0934 N/A
6:53 pm 18:53 Sunny 70 21.1 43 6.1 38 38 NNE 6 9 30.25 1025 10 16.0934 N/A
7:53 pm 19:53 Sunny 68 20 43 6.1 40 40 NNW 3 6 30.26 1025 10 16.0934 N/A
8:53 pm 20:53 Sunny 60 15.6 53 11.7 78 78 N N/A 30.26 1025 10 16.0934 N/A
9:53 pm 21:53 Clear 55 12.8 52 11.1 90 90 N N/A 30.28 1025 10 16.0934 N/A
10:53 pm 22:53 Clear 53 11.7 51 10.6 93 93 N N/A 30.3 1026 10 16.0934 N/A
11:53 pm 23:53 Clear 53 11.7 50 10 89 89 N N/A 30.3 1026 10 16.0934 N/A

Powered by AerisWeather